Weather in Portoroz

Slovenia     45°30′50″N   13°35′34″E
temp.,
°C
wind,
m/s
gust,
m/s
humid.,
%
clouds,
%
prec.,
mm/h
press.,
hPa
HPBL,
m
18 april, sun
sun1823:00+10ene91462100 0.0 10161024
02:00+9ene101465100 0.0 10161005
05:00+9ene9136577 0.0 1016826
08:00+9ene7106570 0.0 1016654
11:00+11ene8105752 0.0 10161215
14:00+13ene675395 0.0 1016789
17:00+12sw5459100 0.0 1015430
20:00+11w4366100 0.0 1016286
19 april, mon
mon1923:00+11n3465100 0.0 1017691
02:00+10nnw5674100 0.3 1017522
05:00+9nne6771100 0.0 1016486
08:00+9ne5772100 0.0 1016411
11:00+10nne4569100 0.0 1016408
14:00+11nw346685 0.0 1015310
17:00+12w446598 0.0 1014386
20:00+12ssw0166100 0.0 101458
20 april, tue
tue2023:00+9ene778999 1.8 1015265
02:00+9ese4483100 5.1 1015137
05:00+10n227852 0.1 1015219
08:00+10nnw227844 0.1 1015331
11:00+10nw2273100 0.0 1016293
14:00+11wsw227546 0.0 1016309
17:00+12sw2271100 0.0 1015344
20:00+12ese117287 0.0 101685
21 april, wed
wed2123:00+11s227499 0.0 1017113
02:00+10se227796 0.0 101876
05:00+10e227972 0.0 101894
08:00+10ese227763 0.1 1018120
11:00+12wsw226485 0.0 1019345
14:00+13wnw12705 0.7 1019323
17:00+14s34737 0.8 1018438
20:00+12s56825 0.9 1019327
22 april, thu
thu2223:00+11se45835 0.0 1021144
02:00+10se34845 0.0 1020112
05:00+10ese238369 0.0 1020103
08:00+11ese227970 0.0 1021119
11:00+13wsw127295 0.0 1021261
14:00+14ssw57769 0.1 1020479
17:00+14ssw68772 0.0 1019361
20:00+13s57825 0.0 1019196